#timestamp,LO_Frequency,Hit,StdDev 
1591516815.3,286047004.1,N
1591516835.1,286047003.7,N
1591516855.9,286047004.1,N
1591516875.7,286047003.8,N
1591516895.5,286047001.3,N
1591516915.4,286047003.1,N
1591516935.5,286047003.5,N
1591516955.3,286047001.9,N
1591516975.2,286047006.0,Y
1591516995.0,286047003.1,P
1591516995.9,286047003.1,P
1591517015.8,286047003.4,P
1591517035.6,286047004.1,Y
1591517055.4,286046998.1,P
1591517075.3,286047000.8,N
1591517095.1,286047001.2,N
1591517115.9,286046998.5,N
1591517135.7,286046999.0,N
1591517155.5,286046999.6,N
1591517175.4,286046996.6,N
1591517195.2,286046996.9,N
1591517215.0,286046997.3,N
1591517216.0,286046997.3,N
1591517235.8,286046997.1,N
1591517255.6,286046997.3,N
1591517275.5,286046995.5,N
1591517295.3,286046995.7,N
1591517315.1,286046992.3,Y
1591517335.9,286046994.3,P
1591517355.7,286046994.7,N
1591517375.6,286046991.9,P
1591517395.4,286046991.7,Y
1591517415.2,286046999.4,P
1591517435.1,286046998.5,N
1591517436.0,286046998.5,N
1591517455.8,286047000.7,N
1591517475.7,286046998.7,N
1591517495.5,286046999.6,N
1591517515.3,286046995.1,N
1591517535.2,286046997.6,N
1591517555.0,286046996.4,N
1591517555.9,286046996.4,N
1591517575.7,286046995.1,N
1591517595.6,286046993.7,Y
1591517615.4,286046994.9,P
1591517635.3,286046995.6,P
1591517655.1,286046996.0,P
1591517675.8,286046996.2,Y
1591517695.7,286046998.7,P
1591517715.5,286046998.2,N
1591517735.4,286047000.6,N
1591517755.2,286047001.0,N
1591517775.0,286047001.9,N
1591517775.9,286047001.9,N
1591517795.8,286047001.8,N
1591517815.6,286047000.2,N
1591517835.5,286047000.4,N
1591517855.3,286046999.8,N
1591517875.1,286046999.9,N
1591517895.9,286047002.4,N
1591517915.7,286047002.5,N
1591517935.5,286047002.0,N
1591517955.4,286047002.3,N
1591517975.2,286047004.0,N
1591517995.1,286047002.4,N
1591517996.0,286047002.4,N
1591518015.8,286047000.3,N
1591518035.6,286047000.6,N
1591518055.5,286047000.9,N
1591518075.3,286047000.8,N
1591518095.1,286046999.7,N
1591518115.9,286047002.5,N
1591518135.7,286047000.7,N
1591518155.6,286047000.6,N
1591518175.4,286047001.1,N
1591518195.2,286047001.1,N
1591518215.1,286046998.8,N
1591518216.0,286046998.8,N
1591518235.8,286047001.0,N
1591518255.7,286047000.9,N
1591518275.5,286047000.6,N
1591518295.3,286046998.3,N
1591518315.2,286046999.0,N
1591518335.0,286046996.8,N
1591518335.9,286046996.8,N
1591518355.8,286046999.6,N
1591518375.6,286046996.9,N
1591518395.4,286046998.8,N
1591518415.3,286046998.4,N
1591518435.1,286047000.6,N
1591518455.8,286047000.4,N
1591518475.7,286047004.3,N
1591518495.5,286047004.3,N
1591518515.4,286047004.1,N
1591518535.2,286047003.5,N
1591518555.0,286047003.2,N
1591518555.9,286047003.2,N
1591518575.8,286047003.9,N
1591518595.6,286047005.4,N
1591518615.5,286047003.1,N
1591518635.3,286047004.0,N
1591518655.1,286047003.4,N
1591518675.9,286047003.8,N
1591518695.7,286047001.7,N
1591518715.5,286047002.7,N
1591518735.4,286047004.3,N
1591518755.2,286047001.7,N
1591518775.1,286047004.1,N
1591518776.0,286047004.1,N
1591518795.8,286047001.4,N
1591518815.6,286047004.4,N
1591518835.5,286047005.6,N
1591518855.3,286047004.4,N
1591518875.2,286047004.2,N
1591518895.9,286047003.6,N
1591518915.7,286047003.2,N
1591518935.6,286047006.0,N
1591518955.4,286047003.1,N
1591518975.2,286047003.5,N
1591518995.1,286047003.6,N
1591518996.0,286047003.6,Y
1591519015.8,286046999.9,P
1591519035.7,286047001.0,N
1591519055.5,286046998.7,N
1591519075.3,286047001.1,N
1591519095.2,286046998.2,N
1591519115.0,286046999.9,N
1591519115.9,286046999.9,N
1591519135.8,286047000.4,N
1591519155.6,286047002.7,N
1591519175.4,286047000.2,N
1591519195.3,286046999.8,N
1591519215.1,286047002.8,N
1591519235.8,286047002.6,N
1591519255.7,286046998.2,N
1591519275.5,286047002.8,N
1591519295.4,286047000.3,N
1591519315.2,286046999.3,N
1591519335.0,286047001.2,N
1591519335.9,286047001.2,N
1591519355.8,286047002.8,N
1591519375.6,286047000.5,N
1591519395.5,286047002.4,N
1591519415.3,286046999.7,N
1591519435.1,286047000.5,N
1591519455.9,286047000.2,N
1591519475.7,286047001.1,N
1591519495.5,286047000.0,N
1591519515.4,286047000.7,N
1591519535.2,286047000.5,N
1591519555.1,286047001.1,N
1591519556.0,286047001.1,N
1591519575.8,286046997.8,N
1591519595.6,286046995.0,Y
1591519615.5,286046994.9,P
1591519635.3,286046999.6,N
1591519655.2,286046998.7,N
1591519675.9,286047000.7,N
1591519695.7,286047002.8,N
1591519715.6,286047000.4,N
1591519735.4,286046998.2,N
1591519755.2,286047001.2,N
1591519775.1,286046998.5,N
1591519776.0,286046998.5,N
1591519795.8,286046999.9,N
1591519815.7,286047000.3,N
1591519835.5,286047000.4,N
1591519855.4,286047001.0,N
1591519875.2,286046998.6,N
1591519895.1,286047000.3,N
1591519896.0,286047000.3,N
1591519915.8,286047000.8,N
1591519935.6,286046999.3,N
1591519955.5,286046998.7,N
1591519975.3,286046999.7,N
1591519995.1,286047000.9,N
1591520015.9,286046999.8,N
1591520035.7,286047000.7,N
1591520055.6,286046999.0,N
1591520075.4,286046998.8,N
1591520095.2,286047001.0,N
1591520115.1,286047000.3,N
1591520116.0,286047000.3,N
1591520135.8,286046999.7,N
1591520155.7,286047002.2,N
1591520175.5,286047001.4,N
1591520195.3,286047004.2,Y
1591520215.2,286047002.2,P
1591520235.0,286047002.5,N
1591520235.9,286047002.5,N
1591520255.8,286047001.0,N
1591520275.6,286046999.8,N
1591520295.4,286047002.4,N
1591520315.3,286047002.1,N
1591520335.1,286047000.1,N
1591520355.9,286047000.4,N
1591520375.7,286046999.8,N
1591520395.5,286047002.5,N
